CAPE
36 169 315 533 564 410 276 342 367 253 165 90 43 9 0 0 0 0 1 5 8 9 12 3 10 23 10 3 8 16 12 10 7 6 8 8 9 7 8 7 5 5 20
50 187 318 507 603 546 286 398 356 195 83 29 6 3 3 4 3 1 3 5 10 10 14 9 11 22 9 6 4 8 7 0 0 3 5 7 1 1 1 4 5 3 10
86 213 320 454 479 433 227 107 181 192 82 4 2 2 4 4 6 7 4 3 1 11 11 6 8 19 10 6 2 0 0 0 0 4 3 0 1 10 4 12 16 6 12
124 212 290 337 300 153 78 43 112 97 62 7 3 1 11 5 6 5 4 6 6 8 5 5 3 12 7 6 2 2 1 0 0 0 0 1 0 4 5 11 10 15 21
53 105 178 218 180 123 75 69 79 59 43 8 10 6 3 6 6 4 8 5 7 4 11 5 5 13 4 3 1 1 0 0 0 0 0 0 2 13 10 7 2 3 5
0 18 82 129 124 120 65 56 64 6 16 28 13 6 3 7 5 4 6 5 7 4 7 3 4 5 0 0 1 0 0 0 0 0 0 5 6 32 15 25 20 23 16
0 0 36 69 45 16 0 14 27 0 12 13 8 3 1 2 3 4 4 4 6 3 6 5 10 3 0 0 0 0 0 0 0 0 4 8 7 25 44 42 50 40 41
0 0 4 36 0 0 0 0 4 8 8 13 17 2 1 3 4 5 4 5 3 3 4 2 0 0 0 0 0 0 0 0 0 0 0 3 26 47 57 61 51 35 19
0 0 0 3 0 0 0 0 7 10 1 1 10 2 0 0 3 1 4 4 1 0 0 0 0 0 0 0 0 0 0 0 0 0 0 0 27 44 37 43 42 25 12
0 0 0 0 0 0 0 0 2 5 0 0 0 0 0 0 2 1 4 0 0 0 0 0 0 0 0 0 0 0 0 0 0 0 0 15 46 49 43 41 32 11 2
0 0 0 0 0 0 0 0 0 0 0 0 2 0 0 0 0 0 0 0 0 0 0 0 0 0 0 0 0 0 0 0 0 0 0 18 36 34 43 43 15 0 0
0 0 0 0 0 0 0 0 0 0 0 0 0 0 0 0 0 0 0 0 0 0 0 0 0 0 0 0 0 0 0 0 0 0 0 0 38 12 41 14 2 1 6
0 0 0 0 0 0 0 0 0 0 0 0 0 0 0 0 0 0 0 0 0 0 0 0 0 0 0 0 0 0 0 0 0 0 0 0 1 7 26 7 2 4 3
0 0 0 0 0 0 0 0 0 0 0 0 0 0 0 0 0 0 0 0 0 0 0 0 0 0 0 0 0 0 0 0 0 0 0 0 0 28 5 1 1 1 3
0 0 0 0 0 0 0 0 0 0 0 0 0 0 0 0 0 0 0 0 0 0 0 0 0 0 0 0 0 0 0 0 0 0 0 0 0 7 1 1 2 3 4
0 0 0 0 0 0 0 0 0 0 0 0 0 0 0 0 0 0 0 0 0 0 0 0 0 0 0 0 0 0 0 0 0 0 0 0 0 0 0 0 0 3 5
0 0 0 0 0 0 0 0 0 0 0 0 0 0 0 0 0 0 0 0 0 0 0 0 0 0 0 0 0 0 0 0 0 0 0 0 0 0 0 0 0 0 3
0 0 0 0 0 0 0 0 0 0 0 0 0 0 0 0 0 0 0 0 0 0 0 0 0 0 0 0 0 0 0 0 0 0 0 0 0 0 0 0 0 0 1
0 0 0 0 0 0 0 0 0 0 0 0 0 0 0 0 0 0 0 0 0 0 0 0 0 0 0 0 0 0 0 0 0 0 0 0 0 0 0 0 0 0 0
0 0 0 0 0 0 0 0 0 0 0 0 0 0 0 0 0 0 0 0 0 0 0 0 0 0 0 0 0 0 0 0 0 0 0 0 0 0 0 0 0 0 0
0 0 0 0 0 0 0 0 0 0 0 0 0 0 0 0 0 0 0 0 0 0 0 0 0 0 0 0 0 0 0 0 0 0 0 0 0 0 0 0 0 0 0
0 0 0 0 0 0 0 0 0 0 0 0 0 0 0 0 0 0 0 0 0 0 0 0 0 0 0 0 0 0 3 0 0 0 0 0 0 0 0 0 0 0 0
0 0 0 0 0 0 0 0 0 0 0 0 0 0 0 0 0 0 0 0 0 0 0 0 0 0 0 0 0 5 4 1 0 0 0 0 0 0 0 0 0 0 0
0 0 0 0 0 0 0 0 0 0 0 0 0 0 0 0 0 0 0 0 0 0 0 0 0 0 0 0 0 0 1 0 0 0 0 0 0 0 0 0 0 0 0
0 0 0 0 0 0 0 0 0 0 0 0 0 0 0 0 0 0 0 0 0 0 0 0 0 0 0 0 1 0 0 0 0 0 0 0 0 0 0 0 0 0 0
0 0 0 0 0 0 0 0 0 0 0 0 0 0 0 0 0 0 0 0 0 0 0 0 0 0 0 0 1 1 2 0 0 0 0 0 0 0 0 0 0 0 0
CIN
-119 -37 -3 -0 -0 -6 -8 -15 -11 -18 -26 -50 -74 -103 -0 -0 -0 -0 -0 -0 -0 -1 -1 -1 -0 -0 -0 -0 -0 -0 -0 -0 -0 -0 -0 -0 -0 -0 -0 -0 -0 -0 -1
-104 -19 -2 -1 -0 -0 -9 -2 -1 -19 -45 -70 -109 -10 -0 -0 -0 -0 -0 -0 -0 -0 -1 -1 -3 -0 -0 -0 -0 -0 -0 -0 -0 -2 -2 -1 -0 -0 -0 -1 -0 -3 -1
-77 -7 -2 -1 -0 -0 -5 -16 -9 -8 -38 -0 -0 -0 -0 -0 -0 -0 -0 -0 -0 -1 -1 -3 -0 -0 -0 -0 -0 -0 -0 -0 -0 -2 -1 -1 -0 -1 -0 -1 -1 -2 -0
-36 -4 -2 -1 -4 -15 -44 -16 -12 -18 -26 -0 -0 -0 -0 -0 -0 -0 -0 -0 -0 -0 -1 -0 -2 -0 -0 -0 -0 -0 -0 -0 -0 -0 -0 -2 -6 -2 -1 -0 -1 -1 -3
-69 -31 -6 -9 -28 -43 -67 -93 -66 -49 -63 -0 -0 -0 -0 -0 -0 -0 -0 -0 -0 -0 -0 -2 -0 -0 -0 -0 -0 -0 -0 -0 -0 -0 -0 -0 -9 -1 -0 -0 -0 -0 -4
-1 -91 -41 -17 -19 -68 -51 -19 -25 -6 -103 -95 -0 -0 -0 -0 -0 -1 -0 -0 -0 -2 -3 -2 -1 -0 -0 -0 -0 -0 -0 -0 -0 -0 -0 -5 -2 -2 -0 -3 -4 -2 -3
-0 -0 -62 -29 -42 -76 -0 -69 -73 -0 -1 -4 -2 -0 -0 -0 -0 -0 -0 -0 -0 -0 -0 -0 -0 -0 -0 -0 -0 -0 -0 -0 -0 -0 -16 -9 -6 -3 -1 -1 -0 -0 -0
-0 -0 -43 -59 -0 -0 -0 -0 -6 -7 -4 -5 -1 -0 -0 -0 -0 -0 -0 -0 -0 -0 -0 -0 -0 -0 -0 -0 -0 -0 -0 -0 -0 -0 -14 -10 -1 -0 -0 -0 -0 -0 -0
-0 -0 -0 -61 -0 -0 -0 -0 -6 -6 -7 -5 -3 -4 -0 -0 -0 -0 -0 -0 -0 -0 -0 -0 -0 -0 -0 -0 -0 -0 -0 -0 -0 -0 -0 -0 -2 -1 -0 -0 -0 -0 -1
-0 -0 -0 -0 -0 -0 -0 -0 -7 -5 -6 -0 -0 -0 -0 -0 -0 -0 -1 -0 -0 -0 -0 -0 -0 -0 -0 -0 -0 -0 -0 -0 -0 -0 -0 -2 -2 -0 -0 -1 -0 -3 -8
-0 -0 -0 -0 -0 -0 -0 -0 -0 -0 -0 -0 -8 -0 -0 -0 -0 -0 -0 -0 -0 -0 -0 -0 -0 -0 -0 -0 -0 -0 -0 -0 -0 -0 -0 -8 -1 -0 -3 -0 -1 -2 -0
-0 -0 -0 -0 -0 -0 -0 -0 -0 -0 -0 -0 -0 -0 -0 -0 -0 -0 -0 -0 -0 -0 -0 -0 -0 -0 -0 -0 -0 -0 -0 -0 -0 -0 -0 -0 -1 -0 -0 -4 -4 -0 -0
-0 -0 -0 -0 -0 -0 -0 -0 -0 -0 -0 -0 -0 -0 -0 -0 -0 -0 -0 -0 -0 -0 -0 -0 -0 -0 -0 -0 -0 -0 -0 -0 -0 -0 -0 -0 -0 -2 -2 -3 -0 -0 -0
-0 -0 -0 -0 -0 -0 -0 -0 -0 -0 -0 -0 -0 -0 -0 -0 -0 -0 -0 -0 -0 -0 -0 -0 -0 -0 -0 -0 -0 -0 -0 -0 -0 -0 -0 -0 -0 -1 -6 -2 -0 -0 -0
-0 -0 -0 -0 -0 -0 -0 -0 -0 -0 -0 -0 -0 -0 -0 -0 -0 -0 -0 -0 -0 -0 -0 -0 -0 -0 -0 -0 -0 -0 -0 -0 -0 -0 -0 -0 -0 -4 -3 -0 -0 -0 -0
-0 -0 -0 -0 -0 -0 -0 -0 -0 -0 -0 -0 -0 -0 -0 -0 -0 -0 -0 -0 -0 -0 -0 -0 -0 -0 -0 -0 -0 -0 -0 -0 -0 -0 -0 -0 -0 -0 -0 -0 -0 -0 -0
-0 -0 -0 -0 -0 -0 -0 -0 -0 -0 -0 -0 -0 -0 -0 -0 -0 -0 -0 -0 -0 -0 -0 -0 -0 -0 -0 -0 -0 -0 -0 -0 -0 -0 -0 -0 -0 -0 -0 -0 -0 -0 -0
-0 -0 -0 -0 -0 -0 -0 -0 -0 -0 -0 -0 -0 -0 -0 -0 -0 -0 -0 -0 -0 -0 -0 -0 -0 -0 -0 -0 -0 -0 -0 -0 -0 -0 -0 -0 -0 -0 -0 -0 -0 -0 -0
-0 -0 -0 -0 -0 -0 -0 -0 -0 -0 -0 -0 -0 -0 -0 -0 -0 -0 -0 -0 -0 -0 -0 -0 -0 -0 -0 -0 -0 -0 -0 -0 -0 -0 -0 -0 -0 -0 -0 -0 -0 -0 -0
-0 -0 -0 -0 -0 -0 -0 -0 -0 -0 -0 -0 -0 -0 -0 -0 -0 -0 -0 -0 -0 -0 -0 -0 -0 -0 -0 -0 -0 -0 -0 -0 -0 -0 -0 -0 -0 -0 -0 -0 -0 -0 -0
-0 -0 -0 -0 -0 -0 -0 -0 -0 -0 -0 -0 -0 -0 -0 -0 -0 -0 -0 -0 -0 -0 -0 -0 -0 -0 -0 -0 -0 -0 -0 -0 -0 -0 -0 -0 -0 -0 -0 -0 -0 -0 -0
-0 -0 -0 -0 -0 -0 -0 -0 -0 -0 -0 -0 -0 -0 -0 -0 -0 -0 -0 -0 -0 -0 -0 -0 -0 -0 -0 -0 -0 -3 -11 -0 -0 -0 -0 -0 -0 -0 -0 -0 -0 -0 -0
-0 -0 -0 -0 -0 -0 -0 -0 -0 -0 -0 -0 -0 -0 -0 -0 -0 -0 -0 -0 -0 -0 -0 -0 -0 -0 -0 -0 -0 -11 -8 -12 -0 -0 -0 -0 -0 -0 -0 -0 -0 -0 -0
-0 -0 -0 -0 -0 -0 -0 -0 -0 -0 -0 -0 -0 -0 -0 -0 -0 -0 -0 -0 -0 -0 -0 -0 -0 -0 -0 -0 -0 -0 -9 -2 -0 -0 -0 -0 -0 -0 -0 -0 -0 -0 -0
-0 -0 -0 -0 -0 -0 -0 -0 -0 -0 -0 -0 -0 -0 -0 -0 -0 -0 -0 -0 -0 -0 -0 -0 -0 -0 -0 -0 -58 -3 -0 -0 -0 -0 -0 -0 -0 -0 -0 -0 -0 -0 -0
-0 -0 -0 -0 -0 -0 -0 -0 -0 -0 -0 -0 -0 -0 -0 -0 -0 -0 -0 -0 -0 -0 -0 -0 -0 -0 -0 -0 -46 -43 -56 -0 -0 -0 -0 -0 -0 -0 -0 -0 -0 -0 -0
Wind_Speed
25 23 25 17 19 20 17 7 7 12 15 17 19 19 18 18 19 19 19 18 20 21 18 12 12 19 20 19 21 24 25 26 26 26 28 31 32 32 32 32 32 32 32
28 25 25 19 20 21 19 4 3 11 14 16 18 18 17 18 19 19 18 18 20 20 16 15 17 21 20 21 24 25 25 25 24 25 27 28 30 30 30 30 30 31 31
25 25 19 16 20 21 15 5 7 9 15 16 17 17 18 19 19 19 18 19 20 17 16 15 17 19 20 21 23 23 24 24 21 19 24 28 28 28 28 28 29 30 30
22 21 21 23 23 22 21 16 4 9 14 16 16 16 18 19 19 18 18 19 17 16 15 15 18 19 21 22 23 23 23 21 22 24 24 25 26 25 26 27 28 28 28
19 18 13 26 26 26 19 19 3 5 13 15 15 16 17 18 18 17 17 16 14 16 16 17 19 20 22 22 22 22 22 22 21 20 21 25 26 26 26 27 26 26 26
20 13 8 24 27 26 26 11 15 12 11 12 16 16 17 16 17 16 16 15 16 17 16 18 19 21 21 21 22 23 22 20 20 22 22 23 25 25 25 25 25 25 25
23 26 25 16 26 27 15 11 15 11 11 12 15 16 16 17 15 16 16 16 16 17 17 19 20 21 22 22 22 22 22 22 22 23 24 24 24 24 25 25 26 27 29
23 27 26 18 8 26 11 5 10 9 9 11 14 15 16 16 16 16 16 17 17 18 18 18 19 19 19 20 21 22 22 23 23 24 24 25 25 24 25 25 25 26 27
19 24 23 21 20 7 5 4 4 6 7 10 11 14 14 14 15 15 16 16 17 17 17 17 17 17 18 20 21 22 23 23 24 25 25 25 24 24 25 25 25 27 28
10 12 16 19 17 8 9 4 3 4 5 7 9 11 13 14 14 15 15 15 15 16 16 16 17 18 19 19 20 21 23 24 24 25 25 25 25 24 25 25 25 26 27
5 14 11 9 10 12 7 11 6 5 5 6 9 10 11 11 12 13 13 14 14 14 15 15 16 17 18 18 19 21 22 23 24 25 25 25 24 24 24 24 25 27 27
3 8 13 11 12 3 3 2 7 5 5 6 9 10 9 9 9 10 11 11 11 12 13 14 16 17 17 17 17 19 21 22 23 24 24 24 23 24 23 24 25 25 25
11 10 8 8 4 1 3 3 7 3 7 9 11 10 7 7 8 9 9 10 10 11 12 15 16 16 16 16 16 18 20 21 22 23 24 24 22 21 22 23 24 23 24
6 8 10 8 3 1 2 2 1 2 4 3 4 5 6 6 7 9 9 10 10 11 13 15 14 15 15 15 15 16 18 20 21 22 22 23 21 19 20 21 21 22 22
8 6 11 8 6 3 1 1 1 2 2 4 4 4 5 5 6 7 8 9 10 10 12 13 13 13 14 15 14 15 17 18 20 21 21 22 21 18 20 20 20 21 21
10 9 7 8 7 5 4 2 1 2 4 4 3 4 3 4 5 5 7 7 8 9 12 13 13 13 14 14 13 13 15 16 17 19 20 20 19 19 19 19 19 19 20
11 10 9 8 7 6 4 4 3 4 2 3 3 3 2 3 3 5 6 7 8 10 12 12 12 13 13 14 13 13 14 14 16 18 18 18 18 19 19 19 19 19 19
8 10 9 8 9 8 6 5 5 5 5 5 5 3 1 0 2 5 7 8 10 11 12 13 13 14 14 14 13 13 13 14 15 17 17 17 17 18 18 19 18 18 18
9 10 12 10 10 9 8 7 6 6 6 5 4 4 4 2 2 3 7 9 11 12 12 12 14 14 15 15 15 15 14 13 13 15 15 15 17 17 17 17 17 17 15
8 9 11 11 10 9 9 10 11 9 9 10 8 7 5 4 4 5 8 9 10 11 12 14 14 14 16 15 17 17 15 15 13 13 13 13 14 14 14 14 14 14 14
12 11 11 12 11 10 11 10 14 12 10 9 8 7 7 6 7 7 8 8 9 10 11 12 14 14 14 16 17 19 18 16 14 13 13 12 13 14 14 13 14 13 13
14 14 13 13 13 13 12 13 16 13 15 9 8 8 8 9 7 7 6 8 8 9 10 11 13 15 15 13 18 20 22 20 18 14 13 13 13 13 13 13 13 12 12
17 16 16 16 15 15 14 13 15 17 20 17 16 12 10 9 9 9 9 9 9 10 11 12 12 13 16 15 13 19 21 21 22 19 16 15 16 15 15 13 13 13 12
21 21 19 18 17 16 15 14 14 14 13 13 14 13 13 11 11 11 11 11 11 12 13 14 14 15 16 18 18 17 20 23 24 28 23 19 19 18 17 15 14 13 13
23 22 22 20 18 18 17 17 16 16 15 17 15 14 14 13 13 13 13 14 14 15 16 17 18 17 18 19 19 21 21 23 25 27 30 28 23 21 19 19 17 16 15
22 23 23 22 20 18 18 18 17 17 17 18 17 17 16 16 15 15 16 16 17 18 18 18 19 19 19 20 21 22 23 25 25 26 29 30 30 27 21 19 18 18 18
Wind_Direction
148 162 159 76 79 77 167 37 35 43 46 47 52 52 49 42 44 39 36 34 40 40 30 12 13 32 32 29 34 42 38 41 40 36 41 49 54 57 56 58 60 58 53
144 155 129 89 83 85 82 340 296 43 45 45 46 47 43 46 46 43 39 36 42 41 27 20 29 42 34 33 43 43 42 38 36 34 40 42 47 48 44 44 47 51 48
122 134 96 78 89 90 65 260 235 40 54 53 48 46 49 51 48 47 42 43 45 34 27 23 32 35 34 33 39 38 38 36 26 16 27 43 39 38 35 35 40 46 46
113 105 105 114 110 100 177 202 277 38 56 55 47 46 54 52 51 48 44 44 38 34 25 24 37 36 38 41 40 38 34 27 25 28 25 25 30 23 25 28 35 39 42
104 97 79 135 148 136 191 195 57 3 54 61 52 54 54 54 52 46 41 33 27 35 30 34 41 40 43 43 40 35 31 27 13 7 6 26 32 31 30 36 38 40 42
110 88 62 182 154 146 148 226 75 59 44 50 68 59 57 49 51 43 37 30 38 42 36 39 42 42 43 40 39 37 28 12 6 7 6 6 20 27 28 32 30 32 34
128 151 191 223 171 151 217 237 79 59 58 59 66 64 59 58 47 46 40 40 43 47 44 45 48 48 47 42 36 30 22 12 9 6 5 8 2 18 18 23 29 29 28
132 164 192 225 261 173 247 356 57 58 58 57 68 65 61 59 55 50 45 45 50 54 50 47 43 40 38 35 32 26 18 14 11 5 2 2 16 22 25 28 26 22 20
127 185 212 219 219 281 298 316 313 41 50 55 62 66 57 51 57 49 47 45 49 53 52 43 31 28 31 33 28 23 20 18 17 12 7 10 18 25 24 21 23 22 18
109 249 239 228 232 75 75 20 320 17 16 35 48 62 57 56 52 54 45 44 50 56 51 40 31 27 32 41 37 32 26 22 18 14 17 22 24 25 21 22 22 19 15
261 248 251 256 260 250 76 88 64 31 354 3 49 59 57 53 55 45 40 43 46 49 47 35 27 24 29 45 40 34 27 23 22 20 18 16 19 19 20 23 19 16 18
183 253 250 252 254 299 326 13 80 56 27 47 62 60 58 47 35 42 39 36 32 29 24 14 10 20 28 42 41 32 27 26 24 21 19 17 22 21 26 24 19 20 23
145 251 247 253 265 78 72 50 286 325 82 94 96 81 37 355 348 2 8 1 1 2 359 358 5 21 34 38 41 33 28 26 25 23 21 20 23 26 27 23 23 24 23
174 240 246 248 234 201 299 60 41 339 328 40 53 38 48 27 9 4 12 10 7 358 359 2 23 31 29 33 38 32 27 25 24 23 20 19 22 34 28 26 26 26 26
169 199 245 242 244 251 227 295 96 98 86 91 79 56 46 32 22 8 11 9 8 8 7 13 20 22 22 23 26 25 24 22 20 19 17 15 20 28 24 24 24 23 22
168 178 226 234 236 242 252 252 168 137 124 117 109 101 69 62 58 27 2 4 5 1 354 359 4 8 9 13 19 22 20 19 19 18 16 16 17 18 20 19 17 18 19
171 177 193 217 234 217 212 182 203 164 170 149 145 124 81 105 58 16 358 353 351 346 347 351 358 360 3 5 7 12 12 15 15 14 15 16 15 13 11 10 10 11 12
183 184 212 225 235 233 232 211 220 195 173 170 168 175 169 360 346 337 334 337 335 336 338 344 348 346 350 354 357 359 2 4 6 7 9 10 11 6 5 4 5 5 7
187 190 186 214 225 223 241 243 214 205 198 203 254 261 270 255 293 322 324 325 326 326 333 338 339 342 342 345 347 349 351 353 356 359 0 1 3 4 359 359 360 0 3
225 203 197 206 210 221 253 260 263 258 260 272 265 265 260 271 283 302 311 317 320 322 326 328 331 336 339 341 341 343 344 345 347 347 351 353 354 357 359 357 355 355 355
247 228 214 211 221 229 249 249 264 252 253 254 230 219 213 256 278 287 295 305 312 312 316 321 326 329 331 336 339 339 340 339 337 336 338 339 340 343 346 351 352 350 347
230 224 223 222 223 220 240 255 268 265 270 232 235 226 252 267 252 248 259 282 290 301 308 312 317 324 325 328 332 334 331 331 327 325 326 325 327 330 332 338 341 342 340
230 227 234 233 233 229 236 254 266 274 276 275 275 265 247 238 239 253 260 266 277 287 294 299 304 308 315 320 316 327 333 328 333 331 318 317 318 318 320 320 327 328 329
244 252 242 241 235 235 232 233 225 231 233 259 268 270 268 258 253 254 256 265 275 285 288 293 299 300 306 309 314 304 314 323 323 327 326 318 316 311 309 309 311 312 320
246 245 250 246 240 237 231 227 236 234 257 271 271 271 269 266 258 261 261 270 276 283 288 292 296 295 298 302 304 312 309 308 313 313 318 323 320 311 305 302 304 305 305
254 249 247 244 235 232 230 229 236 245 254 267 269 271 273 274 272 266 272 274 279 284 284 287 290 292 294 296 300 303 302 310 310 309 310 313 312 317 304 301 296 295 297